PU5BHV-12 Weather Reports


time (UTC)temp
F
wind
direction
speed
knots
gust
knots
rain 1hr
in
rain 24hr
in
rain mn
in
humidity
%
barometer
mb
20230208161239 90 276 0.9 0.9 0.00 0.00 0.00 60 1012.0
20230208160738 89 342 2.6 2.6 0.00 0.00 0.00 58 1012.0
20230208160237 90 322 0.9 1.7 0.00 0.00 0.00 56 1012.3
20230208155736 91 289 0.0 0.0 0.00 0.00 0.00 57 1012.2
20230208155236 93 352 0.9 0.9 0.00 0.00 0.00 51 1012.2
20230208154736 93 252 0.9 0.9 0.00 0.00 0.00 53 1012.3
20230208154235 92 21 0.9 1.7 0.00 0.00 0.00 51 1012.1
20230208153735 92 302 0.0 0.9 0.00 0.00 0.00 53 1012.4
20230208153233 92 319 0.9 0.9 0.00 0.00 0.00 55 1012.5
20230208152732 91 313 1.7 2.6 0.00 0.00 0.00 56 1012.5
20230208152231 90 333 0.0 0.0 0.00 0.00 0.00 56 1012.8
20230208151731 90 308 1.7 2.6 0.00 0.00 0.00 56 1012.8
20230208151229 90 318 0.0 0.0 0.00 0.00 0.00 57 1012.7
20230208150727 89 306 0.0 0.9 0.00 0.00 0.00 57 1012.9
20230208150227 88 330 1.7 1.7 0.00 0.00 0.00 59 1013.0
20230208145726 89 359 0.0 0.9 0.00 0.00 0.00 55 1013.0
20230208145224 88 325 0.0 0.9 0.00 0.00 0.00 59 1013.3
20230208144722 89 308 1.7 1.7 0.00 0.00 0.00 58 1013.2
20230208144222 89 303 0.9 0.9 0.00 0.00 0.00 56 1013.5
20230208143721 88 1 0.0 0.9 0.00 0.00 0.00 58 1013.3
20230208143220 89 316 0.0 0.9 0.00 0.00 0.00 59 1013.6
20230208142718 87 324 0.0 0.0 0.00 0.00 0.00 58 1013.6
20230208142217 88 343 0.0 0.9 0.00 0.00 0.00 60 1013.6
20230208141716 88 97 0.0 0.9 0.00 0.00 0.00 61 1013.9
20230208141216 87 355 0.0 0.0 0.00 0.00 0.00 58 1013.8
20230208140716 88 317 0.0 0.0 0.00 0.00 0.00 57 1013.6
20230208140215 88 182 0.9 0.9 0.00 0.00 0.00 57 1013.8
20230208135713 87 305 0.9 0.9 0.00 0.00 0.00 61 1013.9
20230208135212 87 35 0.9 1.7 0.00 0.00 0.00 58 1014.0
20230208134710 87 307 1.7 1.7 0.00 0.00 0.00 60 1013.7
20230208134209 85 11 0.0 0.0 0.00 0.00 0.00 63 1014.1
20230208133706 86 85 0.9 0.9 0.00 0.00 0.00 65 1014.0
20230208133205 87 164 0.9 1.7 0.00 0.00 0.00 62 1014.1
20230208132704 86 334 0.9 0.9 0.00 0.00 0.00 63 1014.2
20230208132203 86 202 0.9 0.9 0.00 0.00 0.00 64 1014.3
20230208131702 85 55 0.9 1.7 0.00 0.00 0.00 67 1014.2
20230208131202 85 196 1.7 1.7 0.00 0.00 0.00 64 1014.5
20230208130700 84 118 0.0 0.9 0.00 0.00 0.00 67 1014.3
20230208130159 85 340 0.9 1.7 0.00 0.00 0.00 65 1014.6
20230208125659 84 136 1.7 1.7 0.00 0.00 0.00 65 1014.4
20230208125158 84 74 0.9 0.9 0.00 0.00 0.00 66 1014.7
20230208124656 83 139 0.0 0.9 0.00 0.00 0.00 68 1014.6
20230208124155 82 305 0.0 0.0 0.00 0.00 0.00 71 1014.8
20230208123653 82 175 2.6 4.3 0.00 0.00 0.00 69 1015.0
20230208123152 82 335 1.7 2.6 0.00 0.00 0.00 70 1014.7
20230208122652 82 191 1.7 1.7 0.00 0.00 0.00 71 1015.0
20230208122150 81 113 0.9 0.9 0.00 0.00 0.00 72 1015.0
20230208121648 82 164 0.9 0.9 0.00 0.00 0.00 71 1015.1
20230208121148 81 4 0.0 0.9 0.00 0.00 0.00 75 1015.2
20230208120648 80 92 0.9 0.9 0.00 0.00 0.00 75 1015.1
20230208120147 82 110 0.9 0.9 0.00 0.00 0.00 72 1015.1
20230208115647 81 59 0.9 0.9 0.00 0.00 0.00 72 1015.3
20230208115146 81 120 2.6 2.6 0.00 0.00 0.00 71 1015.2
20230208114646 82 146 1.7 1.7 0.00 0.00 0.00 71 1015.0
20230208114144 82 130 0.9 0.9 0.00 0.00 0.00 73 1015.1
20230208113643 80 24 0.0 0.0 0.00 0.00 0.00 74 1015.1
20230208113142 80 120 0.9 0.9 0.00 0.00 0.00 76 1015.1
20230208112640 81 86 0.9 0.9 0.00 0.00 0.00 75 1015.1
20230208112140 80 33 0.0 0.0 0.00 0.00 0.00 77 1015.1
20230208111640 78 291 0.0 0.0 0.00 0.00 0.00 83 1015.0
20230208111138 78 18 0.0 0.0 0.00 0.00 0.00 80 1014.8
20230208110637 77 340 0.0 0.0 0.00 0.00 0.00 83 1014.8
20230208110136 77 83 0.0 0.0 0.00 0.00 0.00 82 1014.8
20230208105634 76 5 0.0 0.0 0.00 0.00 0.00 85 1015.0
20230208105133 74 332 0.0 0.0 0.00 0.00 0.00 91 1015.0
20230208104633 74 322 0.0 0.9 0.00 0.00 0.00 90 1015.0
20230208104132 74 351 0.0 0.0 0.00 0.00 0.00 89 1014.8
20230208103630 74 253 0.0 0.0 0.00 0.00 0.00 89 1015.0
20230208103129 74 254 0.0 0.0 0.00 0.00 0.00 91 1015.1
20230208102628 73 235 0.0 0.0 0.00 0.00 0.00 90 1015.1
20230208102129 73 331 0.0 0.0 0.00 0.00 0.00 91 1014.8
20230208101628 73 329 0.0 0.0 0.00 0.00 0.00 92 1015.0
20230208101128 73 329 0.0 0.0 0.00 0.00 0.00 92 1014.8
20230208100627 73 330 0.0 0.0 0.00 0.00 0.00 92 1014.8
20230208100126 73 330 0.0 0.0 0.00 0.00 0.00 92 1014.8
20230208095625 72 330 0.0 0.0 0.00 0.00 0.00 92 1014.7
20230208095125 72 324 0.0 0.0 0.00 0.00 0.00 95 1015.0
20230208094625 72 324 0.0 0.0 0.00 0.00 0.00 95 1014.7
20230208094124 72 324 0.0 0.0 0.00 0.00 0.00 96 1014.6
20230208093624 72 324 0.0 0.0 0.00 0.00 0.00 96 1014.5
20230208093123 71 324 0.0 0.0 0.00 0.00 0.00 96 1014.8
20230208092622 71 324 0.0 0.0 0.00 0.00 0.00 96 1014.5
20230208092121 71 324 0.0 0.0 0.00 0.00 0.00 96 1014.8
20230208091618 71 324 0.0 0.0 0.00 0.00 0.00 96 1014.5
20230208091115 71 324 0.0 0.0 0.00 0.00 0.00 95 1014.3
20230208090614 71 324 0.0 0.0 0.00 0.00 0.00 95 1014.4
20230208090113 71 324 0.0 0.0 0.00 0.00 0.00 95 1014.4
20230208085611 71 324 0.0 0.0 0.00 0.00 0.00 96 1014.4
20230208085110 71 320 0.0 0.0 0.00 0.00 0.00 97 1014.4
20230208084607 71 320 0.0 0.0 0.00 0.00 0.00 97 1014.3
20230208084106 71 320 0.0 0.0 0.00 0.00 0.00 97 1014.4
20230208083604 71 320 0.0 0.0 0.00 0.00 0.00 97 1014.0
20230208083102 71 320 0.0 0.0 0.00 0.00 0.00 97 1014.1
20230208082602 71 320 0.0 0.0 0.00 0.00 0.00 97 1014.0
20230208082101 70 320 0.0 0.0 0.00 0.00 0.00 97 1014.1
20230208081601 70 320 0.0 0.0 0.00 0.00 0.00 97 1013.9
20230208081100 70 320 0.0 0.0 0.00 0.00 0.00 97 1013.9
20230208080600 70 320 0.0 0.0 0.00 0.00 0.00 97 1013.9
20230208080059 70 320 0.0 0.0 0.00 0.00 0.00 97 1013.9
20230208075557 70 320 0.0 0.0 0.00 0.00 0.00 97 1013.8
20230208075055 70 320 0.0 0.0 0.00 0.00 0.00 97 1014.0
20230208074553 70 320 0.0 0.0 0.00 0.00 0.00 97 1013.8
20230208074051 70 320 0.0 0.0 0.00 0.00 0.00 97 1013.8
20230208073551 70 320 0.0 0.0 0.00 0.00 0.00 97 1014.0
20230208073049 70 320 0.0 0.0 0.00 0.00 0.00 97 1013.7
20230208072547 70 320 0.0 0.0 0.00 0.00 0.00 97 1013.9
20230208072047 70 320 0.0 0.0 0.00 0.00 0.00 97 1013.8
20230208071546 70 320 0.0 0.0 0.00 0.00 0.00 97 1013.9
20230208071044 70 320 0.0 0.0 0.00 0.00 0.00 97 1013.9
20230208070544 70 320 0.0 0.0 0.00 0.00 0.00 97 1014.0
20230208070043 70 320 0.0 0.0 0.00 0.00 0.00 97 1013.9
20230208065542 70 320 0.0 0.0 0.00 0.00 0.00 96 1013.9
20230208065041 70 320 0.0 0.0 0.00 0.00 0.00 96 1013.9
20230208064541 70 321 0.0 0.0 0.00 0.00 0.00 96 1013.9
20230208064040 70 285 0.0 0.0 0.00 0.00 0.00 97 1013.7
20230208063538 70 285 0.0 0.0 0.00 0.00 0.00 96 1013.7
20230208063037 70 285 0.0 0.0 0.00 0.00 0.00 96 1013.9
20230208062536 70 285 0.0 0.0 0.00 0.00 0.00 96 1013.7
20230208062036 70 285 0.0 0.0 0.00 0.00 0.00 96 1013.6
20230208061534 70 285 0.0 0.0 0.00 0.00 0.00 96 1013.6
20230208061032 71 284 0.0 0.0 0.00 0.00 0.00 96 1013.8
20230208060531 71 284 0.0 0.0 0.00 0.00 0.00 96 1013.7
20230208060030 71 284 0.0 0.0 0.00 0.00 0.00 96 1013.8
20230208055529 71 285 0.0 0.0 0.00 0.00 0.00 96 1013.6
20230208055028 71 285 0.0 0.0 0.00 0.00 0.00 96 1013.7
20230208054527 71 285 0.0 0.0 0.00 0.00 0.00 96 1013.8
20230208054025 71 285 0.0 0.0 0.00 0.00 0.00 96 1013.5
20230208053524 71 285 0.0 0.0 0.00 0.00 0.00 96 1014.0
20230208053022 71 285 0.0 0.0 0.00 0.00 0.00 96 1013.7
20230208052522 71 285 0.0 0.0 0.00 0.00 0.00 95 1014.1
20230208052022 71 285 0.0 0.0 0.00 0.00 0.00 95 1013.7
20230208051521 71 285 0.0 0.0 0.00 0.00 0.00 95 1014.0
20230208051021 71 285 0.0 0.0 0.00 0.00 0.00 96 1013.8
20230208050521 71 284 0.0 0.0 0.00 0.00 0.00 95 1014.1
20230208050020 71 284 0.0 0.0 0.00 0.00 0.00 95 1014.2
20230208045519 71 284 0.0 0.0 0.00 0.00 0.00 95 1014.3
20230208045017 72 284 0.0 0.0 0.00 0.00 0.00 94 1014.3
20230208044517 71 284 0.0 0.0 0.00 0.00 0.00 94 1014.3
20230208044016 71 284 0.0 0.0 0.00 0.00 0.00 95 1014.2
20230208043515 71 284 0.0 0.0 0.00 0.00 0.00 95 1014.4
20230208043014 72 284 0.0 0.0 0.00 0.00 0.00 95 1014.3
20230208042513 72 284 0.0 0.0 0.00 0.00 0.00 94 1014.3
20230208042012 72 284 0.0 0.0 0.00 0.00 0.00 94 1014.3
20230208041510 72 284 0.0 0.0 0.00 0.00 0.00 94 1014.5
20230208041009 72 324 0.0 0.0 0.00 0.00 0.00 93 1014.5
20230208040508 72 324 0.0 0.0 0.00 0.00 0.00 93 1014.3
20230208040007 72 324 0.0 0.0 0.00 0.00 0.00 93 1014.5
20230208035506 72 324 0.0 0.0 0.00 0.00 0.00 93 1014.4
20230208035004 73 324 0.0 0.0 0.00 0.00 0.00 93 1014.5
20230208034502 73 324 0.0 0.0 0.00 0.00 0.00 92 1014.4
20230208034001 73 324 0.0 0.0 0.00 0.00 0.00 91 1014.5
20230208033501 73 324 0.0 0.0 0.00 0.00 0.00 92 1014.0
20230208033000 73 318 0.0 0.0 0.00 0.00 0.00 92 1014.7
20230208032458 73 209 0.0 0.0 0.00 0.00 0.00 93 1014.7
20230208031956 73 212 0.0 0.0 0.00 0.00 0.00 93 1014.6
20230208031457 73 190 0.0 0.0 0.00 0.00 0.00 93 1014.7
20230208030955 73 190 0.0 0.0 0.00 0.00 0.00 92 1014.6
20230208030454 73 190 0.0 0.0 0.00 0.00 0.00 92 1014.6
20230208025954 73 190 0.0 0.0 0.00 0.00 0.00 91 1014.8
20230208025453 73 190 0.0 0.0 0.00 0.00 0.00 91 1014.6
20230208024953 73 190 0.0 0.0 0.00 0.00 0.00 91 1014.8
20230208024452 74 190 0.0 0.0 0.00 0.00 0.00 90 1015.0
20230208023952 74 190 0.0 0.0 0.00 0.00 0.00 89 1014.8
20230208023451 74 190 0.0 0.0 0.00 0.00 0.00 88 1014.7
20230208022949 75 190 0.0 0.0 0.00 0.00 0.00 88 1014.8
20230208022448 75 190 0.0 0.0 0.00 0.00 0.00 89 1014.8
20230208021947 75 183 0.0 0.0 0.00 0.00 0.00 88 1014.7
20230208021447 75 344 0.0 0.0 0.00 0.00 0.00 86 1015.0
20230208020946 75 344 0.0 0.0 0.00 0.00 0.00 87 1015.0
20230208020445 75 344 0.0 0.0 0.00 0.00 0.00 86 1015.0
20230208015944 75 344 0.0 0.0 0.00 0.00 0.00 87 1014.8
20230208015442 75 342 0.0 0.0 0.00 0.00 0.00 86 1014.7
20230208014941 75 342 0.0 0.0 0.00 0.00 0.00 86 1014.8
20230208014440 76 342 0.0 0.0 0.00 0.00 0.00 86 1015.0
20230208013939 76 342 0.0 0.0 0.00 0.00 0.00 85 1014.8
20230208013439 76 342 0.0 0.0 0.00 0.00 0.00 85 1014.7
20230208012938 76 342 0.0 0.0 0.00 0.00 0.00 84 1014.7
20230208012438 76 341 0.0 0.0 0.00 0.00 0.00 83 1014.6
20230208011937 77 336 0.0 0.0 0.00 0.00 0.00 83 1014.5
20230208011437 77 321 0.0 0.0 0.00 0.00 0.00 82 1014.4
20230208010936 77 321 0.0 0.0 0.00 0.00 0.00 81 1014.4
20230208010435 77 321 0.0 0.0 0.00 0.00 0.00 80 1014.4
20230208005934 77 292 1.7 2.6 0.00 0.00 0.00 79 1014.1
20230208005433 78 340 0.0 0.9 0.00 0.00 0.00 80 1014.2
20230208004932 78 341 0.0 0.0 0.00 0.00 0.00 80 1014.4
20230208004432 78 333 0.0 0.0 0.00 0.00 0.00 79 1014.7
20230208003931 78 328 0.0 0.9 0.00 0.00 0.00 79 1014.5
20230208003430 78 341 0.0 0.9 0.00 0.00 0.00 78 1014.5
20230208002930 78 330 0.0 0.9 0.00 0.00 0.00 78 1014.6
20230208002429 79 14 0.0 0.0 0.00 0.00 0.00 77 1014.6
20230208001928 79 315 0.9 1.7 0.00 0.00 0.00 77 1014.5
20230208001425 79 351 0.0 0.0 0.00 0.00 0.00 77 1014.4
20230208000925 79 217 0.0 0.0 0.00 0.00 0.00 77 1014.5
20230208000424 79 305 0.0 0.9 0.00 0.00 0.00 77 1014.3
20230207235923 79 349 0.0 0.0 0.00 0.00 0.00 76 1014.4
20230207235422 79 147 1.7 1.7 0.00 0.00 0.00 76 1014.3
20230207234921 79 174 0.9 0.9 0.00 0.00 0.00 76 1014.2
20230207234421 79 272 0.0 0.0 0.00 0.00 0.00 76 1014.1
20230207233920 79 324 0.0 0.0 0.00 0.00 0.00 75 1014.2
20230207233419 80 326 0.0 0.0 0.00 0.00 0.00 75 1014.2
20230207232918 80 98 0.9 1.7 0.00 0.00 0.00 75 1014.1
20230207232417 80 337 0.0 0.9 0.00 0.00 0.00 74 1014.3
20230207231916 80 15 0.9 0.9 0.00 0.00 0.00 74 1014.0
20230207231415 80 287 0.9 0.9 0.00 0.00 0.00 74 1014.0
20230207230914 80 308 1.7 1.7 0.00 0.00 0.00 73 1013.7
20230207230412 80 331 0.0 0.0 0.00 0.00 0.00 72 1013.6
20230207225910 81 327 0.0 0.9 0.00 0.00 0.00 72 1013.5
20230207225409 81 354 2.6 4.3 0.00 0.00 0.00 71 1013.4
20230207224907 81 315 0.0 0.0 0.00 0.00 0.00 70 1013.2
20230207224406 81 121 1.7 1.7 0.00 0.00 0.00 69 1013.0
20230207223906 81 314 0.9 1.7 0.00 0.00 0.00 68 1013.0
20230207223405 82 331 0.0 0.9 0.00 0.00 0.00 67 1012.9
20230207222905 82 281 0.0 0.0 0.00 0.00 0.00 67 1012.6
20230207222403 82 302 0.0 0.0 0.00 0.00 0.00 68 1012.8
20230207221903 82 94 0.9 1.7 0.00 0.00 0.00 67 1012.4
20230207221402 83 16 1.7 1.7 0.00 0.00 0.00 66 1012.3
20230207220901 83 95 0.0 0.9 0.00 0.00 0.00 68 1012.4
20230207220400 83 304 0.0 0.0 0.00 0.00 0.00 67 1011.7
20230207215858 84 13 0.0 0.0 0.00 0.00 0.00 67 1011.7
20230207215356 84 298 1.7 4.3 0.00 0.00 0.00 65 1011.6
20230207214857 85 278 0.0 0.0 0.00 0.00 0.00 65 1011.6
20230207214356 85 270 0.0 0.9 0.00 0.00 0.00 65 1011.5
20230207213855 85 335 1.7 4.3 0.00 0.00 0.00 64 1011.4
20230207213354 85 207 0.9 1.7 0.00 0.00 0.00 65 1011.3
20230207212853 86 272 0.0 0.9 0.00 0.00 0.00 64 1011.1
20230207212353 86 347 2.6 2.6 0.00 0.00 0.00 63 1011.0
20230207211852 86 356 1.7 2.6 0.00 0.00 0.00 63 1010.8
20230207211351 87 149 1.7 1.7 0.00 0.00 0.00 61 1010.9
20230207210850 87 338 2.6 4.3 0.00 0.00 0.00 60 1010.7
20230207210348 88 164 1.7 1.7 0.00 0.00 0.00 59 1010.5
20230207205847 88 7 2.6 2.6 0.00 0.00 0.00 57 1010.5
20230207205346 89 78 0.9 0.9 0.00 0.00 0.00 55 1010.4
20230207204846 89 337 1.7 2.6 0.00 0.00 0.00 54 1010.3
20230207204344 89 335 0.0 0.0 0.00 0.00 0.00 52 1010.2
20230207203842 89 310 0.9 1.7 0.00 0.00 0.00 52 1010.4
20230207203340 90 153 1.7 1.7 0.00 0.00 0.00 50 1010.2
20230207202839 90 268 0.9 0.9 0.00 0.00 0.00 49 1010.0
20230207202337 90 328 0.9 1.7 0.00 0.00 0.00 47 1010.1
20230207201837 90 32 0.0 0.9 0.00 0.00 0.00 46 1010.1
20230207201335 90 327 2.6 2.6 0.00 0.00 0.00 46 1010.1
20230207200834 90 318 1.7 1.7 0.00 0.00 0.00 46 1010.1
20230207200334 90 332 0.0 0.9 0.00 0.00 0.00 47 1010.1
20230207195834 91 317 2.6 2.6 0.00 0.00 0.00 46 1009.9
20230207195333 91 279 0.0 0.0 0.00 0.00 0.00 46 1010.2
20230207194832 91 350 2.6 4.3 0.00 0.00 0.00 45 1010.1
20230207194330 91 321 1.7 1.7 0.00 0.00 0.00 46 1010.4
20230207193829 91 349 0.9 1.7 0.00 0.00 0.00 45 1010.5
20230207193327 91 301 1.7 1.7 0.00 0.00 0.00 45 1010.4
20230207192828 91 53 0.9 1.7 0.00 0.00 0.00 44 1010.4
20230207192327 91 331 2.6 2.6 0.00 0.00 0.00 44 1010.5
20230207191826 92 352 1.7 2.6 0.00 0.00 0.00 44 1010.5
20230207191326 91 337 2.6 2.6 0.00 0.00 0.00 46 1010.8
20230207190824 91 292 2.6 2.6 0.00 0.00 0.00 44 1010.5
20230207190323 91 295 1.7 1.7 0.00 0.00 0.00 45 1010.5
20230207185819 92 342 2.6 4.3 0.00 0.00 0.00 44 1010.8
20230207185315 92 307 2.6 2.6 0.00 0.00 0.00 44 1011.0
20230207184814 92 285 2.6 2.6 0.00 0.00 0.00 44 1010.7
20230207184312 92 318 0.0 0.9 0.00 0.00 0.00 43 1010.8
20230207183811 92 325 0.9 0.9 0.00 0.00 0.00 43 1010.9
20230207183310 91 333 0.9 0.9 0.00 0.00 0.00 41 1010.9
20230207182809 92 302 1.7 1.7 0.00 0.00 0.00 41 1010.9
20230207182308 92 317 0.0 0.0 0.00 0.00 0.00 44 1010.8
20230207181807 91 40 0.9 1.7 0.00 0.00 0.00 42 1011.0
20230207181307 91 347 2.6 2.6 0.00 0.00 0.00 43 1011.3
20230207180802 91 339 0.9 0.9 0.00 0.00 0.00 43 1011.4
20230207180300 92 13 0.9 1.7 0.00 0.00 0.00 41 1011.6
20230207175800 91 312 0.9 1.7 0.00 0.00 0.00 43 1011.7
20230207175259 92 308 2.6 2.6 0.00 0.00 0.00 45 1011.7
20230207174758 92 330 0.0 0.0 0.00 0.00 0.00 43 1011.6
20230207174258 93 325 0.0 0.0 0.00 0.00 0.00 45 1011.6
20230207173757 94 314 0.0 0.9 0.00 0.00 0.00 40 1011.4
20230207173256 93 99 1.7 2.6 0.00 0.00 0.00 40 1011.7
20230207172756 94 330 0.9 0.9 0.00 0.00 0.00 43 1011.6
20230207172254 93 304 0.0 0.9 0.00 0.00 0.00 46 1011.5
20230207171753 94 107 1.7 1.7 0.00 0.00 0.00 43 1011.8
20230207171252 93 49 0.0 0.9 0.00 0.00 0.00 43 1011.8
20230207170751 93 291 0.0 0.0 0.00 0.00 0.00 44 1011.8
20230207170250 92 285 0.0 0.9 0.00 0.00 0.00 43 1011.9
20230207165749 91 287 0.0 0.0 0.00 0.00 0.00 50 1012.2
20230207165247 91 304 0.9 0.9 0.00 0.00 0.00 52 1012.2
20230207164747 92 345 0.9 0.9 0.00 0.00 0.00 48 1012.1
20230207164246 93 295 0.0 0.0 0.00 0.00 0.00 45 1012.1
20230207163745 93 261 0.9 1.7 0.00 0.00 0.00 46 1012.5
20230207163244 93 319 0.9 0.9 0.00 0.00 0.00 41 1012.2
20230207162744 92 334 0.0 0.9 0.00 0.00 0.00 50 1012.4
20230207162243 91 248 0.9 0.9 0.00 0.00 0.00 51 1012.5
20230207161742 90 315 0.0 0.0 0.00 0.00 0.00 55 1012.7